Wind_Speed
41 42 44 46 48 50 52 54 57 59 62 64 67 70 72 75 77 79 81 83 84 85 86 86 86 86 86 86 86 87 87 88 88 84 85 86 86 85 84 83 83 83 82
44 46 47 49 51 54 56 59 61 64 66 69 72 74 76 79 81 82 84 85 85 85 84 84 83 82 81 80 80 79 79 79 80 79 77 79 80 80 79 79 78 78 77
47 49 51 53 55 57 60 63 65 68 71 73 76 78 80 82 83 84 85 85 84 82 81 79 77 75 74 73 72 72 71 71 72 71 69 70 71 72 72 72 72 71 70
51 52 54 56 59 61 64 67 69 72 75 77 79 81 82 84 84 84 83 82 80 77 75 72 70 68 66 65 64 64 63 63 63 63 61 61 62 63 64 63 64 65 66
53 55 57 60 62 65 68 70 73 75 78 80 81 83 83 84 83 82 80 77 74 71 67 65 62 61 60 59 58 57 58 58 58 58 57 56 56 57 58 59 60 61 62
56 58 61 63 66 68 71 73 76 78 80 81 82 83 82 81 79 76 74 71 67 63 60 57 56 56 55 55 54 54 54 54 53 53 53 52 50 52 54 55 56 57 58
59 61 64 66 69 71 74 76 78 80 81 82 81 80 78 75 73 70 68 65 61 57 55 53 52 52 52 51 51 51 50 50 50 50 49 48 47 48 49 50 52 52 53
61 64 67 69 71 74 76 78 80 81 81 80 79 76 73 70 67 65 62 58 55 52 52 51 50 49 49 48 48 47 47 47 47 48 47 45 45 45 46 46 48 48 48
64 66 69 72 74 76 78 79 80 80 79 77 75 72 68 65 62 59 56 53 51 50 49 48 47 47 46 47 46 45 44 43 45 46 46 45 44 44 44 44 44 45 44
66 69 71 74 76 78 79 80 80 79 76 74 70 67 64 61 58 55 53 51 49 48 46 46 45 45 45 45 45 44 43 43 43 43 43 42 42 42 42 42 42 43 44
68 70 73 75 77 78 79 79 78 76 73 70 67 63 60 57 54 51 50 49 48 46 44 43 43 43 43 43 43 43 42 42 41 40 40 39 40 40 41 41 41 42 42
70 72 74 76 78 79 78 77 75 73 69 66 62 59 56 53 50 48 47 47 46 44 43 43 42 42 42 42 41 41 41 41 40 40 39 39 39 39 39 39 40 40 40
71 74 75 77 77 78 76 74 72 69 65 62 59 55 51 49 48 46 45 45 45 44 43 42 42 41 41 41 41 40 40 40 40 39 39 38 38 37 37 36 37 38 38
73 75 76 77 77 75 74 71 68 65 61 58 55 52 48 46 45 44 43 43 43 43 43 42 41 40 40 40 39 39 39 39 39 38 38 37 36 35 35 35 35 36 37
75 76 77 76 76 73 70 67 64 60 58 55 52 50 47 45 43 42 41 41 41 41 40 39 39 39 38 38 38 38 37 37 37 36 35 34 33 33 33 33 34 35 36
75 76 76 75 73 71 67 63 59 57 54 52 51 49 47 44 42 41 40 40 40 39 38 37 37 36 36 36 35 35 34 34 33 32 31 30 30 30 31 32 33 33 34
76 76 75 74 71 68 64 60 56 52 50 49 48 47 46 43 41 40 39 38 38 37 36 36 36 35 35 34 33 32 32 31 29 28 28 27 28 28 29 30 31 31 31
75 75 73 71 68 64 61 58 54 51 47 45 45 45 44 42 40 39 38 37 36 36 36 36 35 34 34 33 32 31 30 29 28 28 27 27 27 28 28 28 28 29 29
74 73 70 67 63 60 57 54 52 49 46 44 42 42 41 40 39 38 38 36 36 36 36 35 34 33 33 32 31 30 29 28 28 28 27 27 28 28 28 28 28 28 29
72 69 66 63 59 56 54 52 49 47 45 43 41 40 39 38 37 37 36 36 36 35 35 35 34 33 33 32 30 29 28 28 28 28 27 27 28 28 28 28 28 28 29
68 65 62 59 56 53 51 49 47 45 44 42 41 40 39 37 35 35 34 35 35 34 34 34 33 33 32 31 29 28 28 27 27 27 27 27 27 27 28 28 28 29 29
64 61 58 56 53 50 48 47 45 44 42 41 39 38 37 36 35 34 34 34 34 34 34 33 32 32 31 30 29 28 28 27 27 27 27 28 28 29 29 30 30 30 30
60 57 55 53 50 48 46 45 43 42 41 40 38 37 36 35 35 34 34 34 34 34 33 33 32 31 30 29 29 28 28 28 28 28 28 29 29 29 30 30 31 31 31
56 54 52 50 47 45 44 43 42 40 39 38 37 36 35 34 34 34 33 33 33 33 32 31 30 30 29 29 28 28 28 28 28 29 29 29 29 29 29 30 30 31 31
53 51 49 47 45 43 42 41 40 39 37 36 35 34 33 33 33 33 32 32 32 31 30 30 29 28 28 28 28 28 28 29 29 30 30 30 30 30 30 30 30 30 30
50 48 46 44 43 41 40 39 38 36 35 34 34 33 32 32 32 32 32 31 30 29 29 28 28 27 27 27 27 28 28 29 30 30 31 31 31 31 31 31 30 30 30
Wind_Direction
295 295 296 296 297 297 298 298 298 298 299 298 298 298 298 298 297 297 296 295 294 293 292 290 289 287 286 284 283 281 280 279 277 275 273 271 270 269 267 266 265 264 263
296 297 297 298 299 299 300 300 300 301 301 300 300 300 300 300 299 299 298 297 296 295 293 292 290 289 287 286 284 283 281 280 279 277 274 272 270 269 268 267 266 265 264
297 298 299 300 301 301 302 302 302 303 303 303 303 302 302 302 301 300 299 298 297 296 294 293 292 290 289 287 285 284 283 282 281 280 277 274 272 270 269 268 267 265 263
299 300 300 301 302 303 304 304 304 304 305 305 304 304 304 303 303 302 301 299 298 297 296 294 293 291 289 288 286 285 284 283 281 281 279 276 273 271 269 268 266 264 263
300 301 302 303 304 304 305 305 306 306 306 306 306 306 306 305 304 303 301 300 299 298 296 295 293 292 290 289 288 287 285 284 283 282 280 278 275 271 269 266 265 262 261
301 302 303 304 305 306 306 307 308 308 308 308 308 308 307 306 305 303 302 301 300 298 297 295 294 292 291 289 289 288 287 286 284 283 281 279 276 273 270 268 266 264 262
302 303 304 305 306 307 308 308 309 309 309 310 309 309 308 306 305 304 302 301 300 299 297 296 294 293 292 290 288 288 287 286 285 284 282 280 276 274 272 270 268 266 263
303 304 305 306 307 308 309 310 310 311 311 311 310 309 308 307 305 303 302 301 300 299 298 296 295 294 293 291 290 288 287 285 284 283 283 281 278 274 272 271 269 267 264
304 306 307 308 309 310 311 311 312 312 312 311 311 310 308 307 305 303 302 301 300 299 298 297 296 295 294 292 291 290 289 286 284 284 283 281 279 276 273 271 269 267 265
306 307 308 309 310 311 312 312 313 313 312 312 311 310 308 307 305 304 301 300 300 299 298 297 296 295 294 293 292 291 289 287 285 284 283 282 280 277 274 272 270 268 266
307 308 309 310 311 312 313 313 313 313 312 312 311 310 308 307 305 303 301 301 301 300 299 299 298 296 295 294 293 292 290 288 287 285 283 281 280 278 275 273 271 269 267
308 309 310 311 312 313 314 314 314 313 312 311 310 309 308 306 305 303 301 301 302 302 301 300 299 297 296 295 294 292 291 289 288 285 283 281 280 278 275 273 271 270 268
309 310 311 312 313 314 314 314 314 313 311 310 309 308 307 305 304 302 301 301 302 302 302 301 300 298 297 296 294 293 291 289 288 286 284 282 280 277 275 273 271 270 269
310 311 312 313 314 314 314 314 313 312 311 309 308 307 306 305 303 302 301 301 302 302 302 301 300 300 299 297 296 294 293 291 289 286 284 282 280 277 275 273 271 270 269
310 311 312 313 314 314 314 314 313 312 310 309 308 307 307 306 304 302 302 302 303 303 302 302 301 300 299 299 297 296 294 293 291 288 285 282 280 277 276 275 273 271 269
311 312 313 314 314 314 314 313 312 311 310 308 308 308 308 307 305 304 304 304 305 305 305 304 303 302 302 302 301 299 297 296 293 290 287 283 281 279 278 276 275 273 271
312 313 313 314 314 314 313 312 311 310 309 308 307 307 307 307 306 305 305 306 306 306 306 306 306 305 304 304 303 301 299 297 294 292 289 286 284 282 281 279 277 274 272
312 313 313 314 314 313 313 312 311 310 308 306 306 306 306 306 306 305 306 306 307 307 307 307 306 306 305 305 303 302 299 297 294 293 291 289 286 285 285 283 280 277 274
312 313 313 313 313 312 312 311 310 310 309 307 306 306 305 305 305 305 305 305 306 307 308 308 307 306 306 306 304 302 299 296 295 294 292 290 288 286 285 283 280 278 276
312 312 312 312 312 311 311 310 310 309 309 308 307 306 304 304 304 304 304 304 306 307 307 308 307 306 306 307 305 302 299 297 297 295 294 292 290 287 284 282 280 278 276
312 311 311 311 310 310 309 309 309 309 308 307 307 306 305 305 304 304 304 305 306 306 307 308 307 307 306 306 305 303 300 298 297 297 296 294 291 289 286 282 280 279 277
310 310 309 309 309 309 308 308 308 308 308 307 307 306 306 305 305 305 306 307 307 307 308 308 308 308 306 305 304 302 300 298 297 297 297 295 292 290 287 284 282 280 278
309 308 308 309 308 307 307 307 308 307 307 307 307 306 305 305 306 306 307 307 307 308 308 308 308 307 306 305 303 302 300 298 297 298 297 297 295 292 289 286 284 281 279
308 307 308 307 307 306 306 307 307 306 307 307 307 306 305 306 307 307 308 308 308 308 308 308 308 307 306 305 304 303 302 300 299 299 299 297 295 293 291 289 287 284 281
306 306 306 306 306 306 306 306 306 306 306 306 307 306 306 307 308 309 309 309 309 309 309 309 309 307 307 307 306 305 303 301 300 299 299 298 296 295 293 291 289 286 283
305 305 305 305 305 305 305 305 305 305 305 306 307 307 307 308 310 310 310 310 310 310 310 310 309 308 308 308 308 307 305 304 302 301 300 299 297 296 294 292 290 287 284
Height
5726 5722 5717 5713 5708 5703 5698 5692 5686 5680 5674 5667 5660 5652 5644 5636 5627 5619 5610 5601 5592 5584 5574 5566 5558 5549 5541 5534 5527 5521 5516 5510 5508 5519 5515 5509 5505 5506 5506 5505 5505 5507 5510
5715 5710 5705 5700 5695 5689 5684 5677 5671 5664 5657 5649 5641 5633 5624 5614 5605 5595 5586 5576 5567 5558 5548 5539 5531 5522 5515 5508 5501 5495 5490 5485 5481 5485 5489 5483 5480 5479 5480 5480 5480 5481 5485
5703 5698 5693 5687 5681 5675 5668 5662 5654 5647 5638 5630 5621 5612 5602 5592 5582 5571 5561 5551 5541 5532 5523 5514 5507 5498 5492 5484 5478 5473 5468 5463 5459 5458 5462 5460 5457 5456 5455 5457 5457 5458 5461
5690 5685 5679 5673 5667 5660 5653 5645 5637 5628 5619 5610 5600 5590 5579 5569 5558 5547 5536 5527 5517 5508 5500 5491 5484 5476 5470 5464 5458 5453 5448 5443 5440 5437 5438 5438 5436 5435 5434 5435 5436 5436 5438
5677 5671 5665 5658 5651 5644 5636 5628 5619 5609 5599 5589 5579 5568 5557 5545 5534 5523 5513 5504 5495 5487 5479 5471 5464 5457 5451 5445 5440 5436 5430 5426 5423 5420 5419 5418 5418 5416 5415 5414 5415 5416 5418
5664 5657 5650 5643 5636 5627 5619 5610 5600 5590 5579 5568 5557 5546 5534 5522 5511 5500 5490 5483 5475 5468 5461 5454 5447 5441 5435 5429 5424 5419 5415 5410 5407 5404 5402 5401 5401 5399 5397 5396 5397 5398 5401
5649 5642 5635 5627 5619 5610 5601 5591 5581 5570 5559 5548 5536 5524 5513 5502 5490 5480 5471 5463 5457 5450 5444 5438 5432 5426 5420 5414 5410 5405 5400 5396 5392 5389 5387 5386 5384 5383 5381 5381 5380 5381 5383
5635 5627 5619 5611 5602 5592 5583 5572 5561 5550 5539 5527 5516 5504 5493 5483 5472 5463 5454 5447 5441 5435 5428 5422 5417 5411 5405 5399 5395 5391 5387 5383 5379 5374 5372 5371 5369 5367 5366 5365 5365 5365 5367
5619 5611 5602 5593 5584 5575 5564 5553 5542 5531 5519 5508 5496 5485 5475 5465 5455 5446 5438 5432 5426 5420 5414 5408 5402 5397 5392 5386 5381 5378 5374 5371 5366 5362 5359 5357 5355 5354 5352 5351 5351 5351 5352
5604 5595 5586 5576 5566 5556 5545 5534 5522 5511 5500 5489 5478 5467 5457 5448 5440 5431 5423 5417 5412 5407 5401 5395 5389 5383 5378 5372 5367 5364 5361 5357 5353 5349 5346 5344 5342 5340 5339 5338 5338 5337 5338
5588 5579 5569 5558 5548 5537 5526 5515 5503 5492 5482 5472 5462 5452 5442 5433 5425 5417 5410 5403 5398 5393 5388 5382 5377 5371 5365 5360 5355 5350 5347 5343 5340 5337 5334 5332 5330 5328 5326 5325 5324 5324 5325
5572 5562 5552 5541 5530 5519 5508 5497 5485 5474 5464 5454 5445 5437 5428 5419 5412 5404 5397 5391 5385 5379 5375 5369 5364 5359 5353 5348 5343 5338 5334 5330 5327 5324 5322 5320 5317 5316 5314 5313 5312 5311 5311
5555 5545 5534 5524 5512 5501 5490 5479 5468 5457 5447 5438 5430 5422 5415 5407 5399 5392 5386 5380 5373 5367 5362 5357 5352 5346 5341 5336 5331 5326 5322 5318 5315 5312 5309 5307 5305 5303 5302 5301 5300 5299 5299
5538 5528 5517 5507 5496 5484 5472 5461 5451 5440 5431 5423 5415 5408 5402 5395 5387 5381 5375 5369 5363 5356 5350 5345 5340 5334 5329 5324 5319 5315 5310 5306 5302 5299 5296 5294 5292 5291 5290 5289 5288 5287 5287
5521 5510 5500 5489 5478 5468 5457 5445 5435 5426 5415 5407 5401 5394 5388 5383 5376 5369 5362 5357 5351 5345 5339 5334 5329 5324 5318 5313 5308 5303 5299 5294 5290 5287 5284 5282 5280 5279 5278 5277 5277 5276 5275
5503 5492 5482 5471 5461 5450 5441 5432 5421 5412 5403 5394 5386 5380 5374 5369 5363 5357 5351 5346 5340 5334 5328 5323 5318 5313 5308 5302 5298 5293 5288 5284 5280 5276 5274 5272 5270 5269 5267 5266 5265 5264 5264
5484 5474 5464 5453 5443 5433 5424 5416 5409 5401 5392 5383 5375 5368 5362 5357 5351 5346 5340 5335 5329 5323 5318 5313 5308 5303 5298 5293 5288 5283 5279 5275 5271 5268 5265 5263 5261 5259 5257 5256 5255 5254 5253
5466 5456 5446 5436 5427 5417 5408 5400 5393 5386 5380 5373 5365 5358 5351 5346 5340 5335 5329 5324 5320 5314 5309 5303 5298 5293 5288 5283 5278 5274 5270 5266 5263 5260 5257 5254 5252 5250 5248 5246 5245 5244 5243
5449 5439 5429 5420 5411 5402 5394 5386 5379 5372 5366 5360 5354 5348 5341 5336 5330 5325 5319 5314 5309 5305 5299 5294 5289 5284 5279 5274 5269 5265 5261 5258 5254 5251 5248 5246 5243 5241 5239 5237 5235 5234 5233
5433 5423 5413 5404 5396 5388 5381 5373 5367 5360 5354 5348 5342 5337 5331 5326 5321 5316 5310 5305 5300 5295 5290 5285 5279 5275 5270 5265 5260 5256 5253 5249 5246 5242 5239 5237 5234 5232 5230 5228 5226 5225 5223
5417 5408 5399 5390 5382 5375 5368 5361 5355 5348 5342 5337 5331 5325 5320 5315 5310 5306 5301 5295 5290 5285 5280 5275 5270 5266 5261 5256 5252 5248 5244 5241 5237 5234 5231 5228 5225 5223 5220 5218 5216 5215 5213
5400 5392 5385 5377 5370 5363 5356 5349 5343 5337 5331 5326 5321 5315 5310 5305 5300 5295 5291 5286 5281 5276 5271 5266 5261 5257 5252 5248 5244 5240 5236 5233 5229 5226 5222 5219 5216 5213 5211 5209 5206 5205 5203
5385 5378 5371 5364 5357 5351 5344 5338 5332 5326 5321 5315 5310 5305 5300 5295 5291 5286 5281 5276 5271 5266 5261 5257 5252 5247 5243 5239 5235 5231 5227 5224 5220 5217 5214 5210 5207 5204 5201 5198 5196 5193 5192
5370 5363 5357 5351 5345 5339 5333 5327 5321 5316 5310 5305 5300 5295 5291 5286 5281 5276 5271 5266 5262 5257 5252 5247 5243 5239 5234 5230 5226 5222 5218 5215 5211 5208 5204 5200 5197 5193 5190 5187 5185 5182 5180
5357 5350 5344 5338 5333 5327 5322 5316 5311 5306 5301 5296 5291 5286 5281 5277 5272 5267 5262 5257 5252 5247 5243 5238 5234 5230 5226 5222 5218 5214 5210 5206 5202 5198 5194 5190 5187 5183 5180 5177 5174 5171 5169
5343 5337 5332 5326 5321 5316 5311 5306 5301 5296 5291 5287 5282 5277 5272 5268 5263 5258 5253 5248 5243 5238 5234 5230 5226 5222 5218 5213 5209 5205 5201 5197 5193 5188 5184 5180 5177 5173 5169 5166 5163 5160 5158